Location: Auckland
(36.8670°S, 174.7670°E)
Time: 02:58:59
(UTC+13:00)

Lacrosse 5 - Pass Details

Date: 24 January 2019
Orbit: 713 x 725 km, 57.0° (Epoch: 17 February)

Event Time Altitude Azimuth Distance (km) Brightness Sun altitude
Rises 22:52:57 0° 235° (SW) 3,162 6.5 -22.4°
Reaches altitude 10° 22:55:47 10° 249° (WSW) 2,231 5.2 -22.8°
Maximum altitude 22:59:43 23° 300° (WNW) 1,532 3.6 -23.3°
Enters shadow 23:01:11 20° 324° (NW) 1,640 3.6 -23.5°
